Location: Conjunto Santa Maria
(19.9513°S, 43.9599°W)
Time: 13:04:48
(UTC+00:00)

Cosmos 2058 - Pass Details

Date: 21 January 2021
Orbit: 561 x 584 km, 82.5° (Epoch: 04 March)

Event Time Altitude Azimuth Distance (km) Brightness Sun altitude
Rises 22:14:02 0° 171° (S) 2,817 6.7 -8.0°
Reaches altitude 10° 22:16:25 10° 161° (SSE) 1,914 5.7 -8.5°
Maximum altitude 22:20:12 31° 97° (E) 1,026 3.8 -9.3°
Drops below altitude 10° 22:23:57 10° 34° (NE) 1,899 5.0 -10.1°
Enters shadow 22:24:07 - 33° (NNE) 1,958 5.1 -10.1°
